Overview Statistics Trail Chart Weather Telemetry Raw packets
 

This is the latest recevied weather packets stored in our database for station/object PU5FJO-13. If no packets are shown the sender has not sent any weather packets the latest 10 day(s).

<< 42 43 44 45 46 47 48 >>
Time Temp. Humidity Pressure Rain* Wind** Luminosity Snow
1777172763 22.78° C 75% 1012.2 hPa - - - -
1777172163 22.22° C 76% 1012.5 hPa - - - -
1777171564 22.22° C 76% 1012.6 hPa - - - -
1777170963 22.22° C 77% 1012.7 hPa - - - -
1777170364 22.22° C 79% 1012.7 hPa - - - -
1777169764 22.78° C 77% 1012.6 hPa - - - -
1777169163 22.22° C 77% 1012.9 hPa - - - -
1777168563 22.78° C 76% 1012.8 hPa - - - -
1777167964 22.78° C 76% 1012.8 hPa - - - -
1777167363 22.78° C 76% 1012.6 hPa - - - -
1777166763 22.78° C 76% 1012.5 hPa - - - -
1777166164 23.33° C 75% 1012.6 hPa - - - -
1777165563 23.33° C 75% 1012.8 hPa - - - -
1777164963 23.89° C 73% 1012.6 hPa - - - -
1777164363 23.89° C 73% 1012.7 hPa - - - -
1777163763 23.33° C 75% 1012.9 hPa - - - -
1777163163 23.33° C 75% 1012.9 hPa - - - -
1777162563 22.78° C 77% 1012.8 hPa - - - -
1777161963 23.33° C 76% 1012.6 hPa - - - -
1777161363 23.33° C 75% 1012.6 hPa - - - -
1777160763 23.89° C 73% 1012.6 hPa - - - -
1777160163 25° C 70% 1012.5 hPa - - - -
1777159563 24.44° C 72% 1012.5 hPa - - - -
1777158963 23.89° C 73% 1012.6 hPa - - - -
1777158363 24.44° C 72% 1012.7 hPa - - - -

* Rain since midnight (hover to see other rain measurements)
** Current wind speed in m/s (hover to see current wind gust speed)